{"data":{"norad_id":66541,"epoch":"2026-09-20T16:21:37.075968Z","epoch_age_seconds":73445,"freshness":"FRESH","line1":"1 66541U 25265AB  26263.68167912  .00005218  00000+0  19897-3 0  9993","line2":"2 66541  42.9967 256.8311 0001159 270.8668  89.2051 15.27586854 46938","mean_motion":15.27586854,"eccentricity":0.0001159,"inclination_deg":42.9967,"raan_deg":256.8311,"arg_perigee_deg":270.8668,"mean_anomaly_deg":89.2051,"bstar":0.00019897,"rev_number":4693,"period_min":94.266325756165,"perigee_km":482.23336368479,"apogee_km":483.82378186456,"semimajor_km":6861.1655727747,"source":"CELESTRAK","updated_at":"2026-09-21T09:00:35.968530Z"}}